Location: ????????
(55.0559°N, 39.1270°E)
Time: 08:46:30
(UTC+00:00)

Cosmos 1725 Rocket - Pass Details

Date: 15 November 2025
Orbit: 961 x 989 km, 82.9° (Epoch: 14 December)

Event Time Altitude Azimuth Distance (km) Brightness Sun altitude
Rises 00:49:59 0° 349° (N) 3,717 7.1 -34.6°
Reaches altitude 10° 00:52:34 10° 353° (N) 2,764 6.4 -34.3°
Maximum altitude 00:58:52 61° 74° (ENE) 1,116 4.4 -33.4°
Drops below altitude 10° 01:05:05 10° 154° (SSE) 2,740 6.4 -32.5°
Sets 01:07:38 0° 158° (SSE) 3,681 7.1 -32.2°
